sat.trackr.live / text

‹ back to catalog

STARLINK-33635

NORAD 63065 · 2025-035P

PAYLOAD ACTIVE UNKNOWN

§ Identity

Operator
Country
US
Launch date
2025-02-21
Launch site
AFETR
Launch vehicle
Mass (kg)
RCS (m²)

Purposes: comms

External: N2YO · Heavens-Above · Gunter

§ Orbital elements

Epoch: 2026-05-25T02:01:33.381696Z

Period
94.27 min
Inclination
42.9974°
Eccentricity
0.0001745
Mean motion
15.27601633 rev/d
Perigee alt
481.8 km
Apogee alt
484.2 km
Semi-major
6,861.1 km
B*
3.8310e-4
RAAN
75.6094°
Arg perigee
274.2782°
Mean anomaly
85.7871°
Rev number
7,141

§ Raw data

STARLINK-336351 63065U 25035P   26145.08441414  .00010302  00000+0  38310-3 0  99922 63065  42.9974  75.6094 0001745 274.2782  85.7871 15.27601633 71410

JSON: /api/v1/satellites/63065 · /tle

For live sub-satellite position, see the globe view (requires WebGL).

§ Visibility from observer

Set your observer location to see the next 7 days of passes ≥ 10°. The values pass through the URL so the page stays shareable.

No JS? Fill the form by hand. The geolocation button needs JavaScript.